Time,TemperatureF,DewpointF,PressureIn,WindDirection,WindDirectionDegrees,WindSpeedMPH,WindSpeedGustMPH,Humidity,HourlyPrecipIn,Conditions,Clouds,dailyrainin,SoftwareType,DateUTC
2013-11-08 00:12:00,32.0,15.0,30.22,ESE,116,0.0,-999.0,50,-99.99,,,-99.99,,2013-11-08 07:12:00,
2013-11-08 00:22:00,32.0,15.0,30.22,North,5,1.0,-999.0,50,-99.99,,,-99.99,,2013-11-08 07:22:00,
2013-11-08 00:42:00,34.0,16.0,30.21,NNE,15,1.0,-999.0,47,-99.99,,,-99.99,,2013-11-08 07:42:00,
2013-11-08 00:52:00,34.0,16.0,30.20,SSW,201,1.0,-999.0,47,-99.99,,,-99.99,,2013-11-08 07:52:00,
2013-11-08 01:22:00,34.0,15.0,30.19,SW,218,0.0,-999.0,46,-99.99,,,-99.99,,2013-11-08 08:22:00,
2013-11-08 01:52:00,35.0,15.0,30.16,SSW,209,1.0,-999.0,44,-99.99,,,-99.99,,2013-11-08 08:52:00,
2013-11-08 02:22:00,35.0,15.0,30.14,SSW,206,2.0,-999.0,43,-99.99,,,-99.99,,2013-11-08 09:22:00,
2013-11-08 02:43:00,35.0,14.0,30.13,SW,220,3.0,-999.0,41,-99.99,,,-99.99,,2013-11-08 09:43:00,
2013-11-08 02:53:00,35.0,14.0,30.14,SW,218,2.0,-999.0,41,-99.99,,,-99.99,,2013-11-08 09:53:00,
2013-11-08 03:12:00,35.0,12.0,30.13,SW,231,3.0,-999.0,38,-99.99,,,-99.99,,2013-11-08 10:12:00,
2013-11-08 03:23:00,35.0,12.0,30.13,SW,231,3.0,-999.0,38,-99.99,,,-99.99,,2013-11-08 10:23:00,
2013-11-08 03:42:00,35.0,13.0,30.11,WSW,244,2.0,-999.0,39,-99.99,,,-99.99,,2013-11-08 10:42:00,
2013-11-08 03:53:00,35.0,12.0,30.10,WSW,250,2.0,-999.0,38,-99.99,,,-99.99,,2013-11-08 10:53:00,
2013-11-08 04:22:00,34.0,13.0,30.09,WSW,249,0.0,-999.0,42,-99.99,,,-99.99,,2013-11-08 11:22:00,
2013-11-08 04:52:00,33.0,11.0,30.08,NW,323,1.0,-999.0,40,-99.99,,,-99.99,,2013-11-08 11:52:00,
2013-11-08 05:11:00,33.0,11.0,30.08,NW,309,1.0,-999.0,40,-99.99,,,-99.99,,2013-11-08 12:11:00,
2013-11-08 05:21:00,33.0,10.0,30.08,WSW,255,1.0,-999.0,38,-99.99,,,-99.99,,2013-11-08 12:21:00,
2013-11-08 05:42:00,33.0,10.0,30.08,WSW,247,1.0,-999.0,37,-99.99,,,-99.99,,2013-11-08 12:42:00,
2013-11-08 05:52:00,34.0,11.0,30.07,WSW,243,2.0,-999.0,37,-99.99,,,-99.99,,2013-11-08 12:52:00,
2013-11-08 06:11:00,34.0,11.0,30.06,SW,232,3.0,-999.0,37,-99.99,,,-99.99,,2013-11-08 13:11:00,
2013-11-08 06:21:00,35.0,10.0,30.06,SW,232,4.0,-999.0,35,-99.99,,,-99.99,,2013-11-08 13:21:00,
2013-11-08 06:52:00,35.0,9.0,30.05,WSW,243,5.0,-999.0,34,-99.99,,,-99.99,,2013-11-08 13:52:00,
2013-11-08 07:11:00,35.0,9.0,30.04,NW,323,5.0,-999.0,34,-99.99,,,-99.99,,2013-11-08 14:11:00,
2013-11-08 07:22:00,35.0,9.0,30.04,WSW,250,4.0,-999.0,33,-99.99,,,-99.99,,2013-11-08 14:22:00,
2013-11-08 07:42:00,35.0,9.0,30.03,WSW,247,4.0,-999.0,34,-99.99,,,-99.99,,2013-11-08 14:42:00,
2013-11-08 07:52:00,36.0,9.0,30.03,WSW,252,6.0,-999.0,32,-99.99,,,-99.99,,2013-11-08 14:52:00,
2013-11-08 08:22:00,37.0,10.0,30.03,WSW,251,5.0,-999.0,32,-99.99,,,-99.99,,2013-11-08 15:22:00,
2013-11-08 08:43:00,37.0,10.0,30.01,WSW,254,6.0,-999.0,32,-99.99,,,-99.99,,2013-11-08 15:43:00,
2013-11-08 08:53:00,37.0,11.0,29.99,West,262,5.0,-999.0,33,-99.99,,,-99.99,,2013-11-08 15:53:00,
2013-11-08 09:23:00,38.0,11.0,30.00,WSW,246,4.0,-999.0,32,-99.99,,,-99.99,,2013-11-08 16:23:00,
2013-11-08 09:53:00,38.0,12.0,29.98,South,170,4.0,-999.0,34,-99.99,,,-99.99,,2013-11-08 16:53:00,
2013-11-08 10:22:00,40.0,13.0,30.00,SW,215,4.0,-999.0,32,-99.99,,,-99.99,,2013-11-08 17:22:00,
2013-11-08 10:43:00,41.0,15.0,30.01,WNW,285,2.0,-999.0,34,-99.99,,,-99.99,,2013-11-08 17:43:00,
2013-11-08 10:53:00,41.0,14.0,29.99,SW,214,3.0,-999.0,33,-99.99,,,-99.99,,2013-11-08 17:53:00,
2013-11-08 11:22:00,40.0,14.0,29.97,South,180,4.0,-999.0,34,-99.99,,,-99.99,,2013-11-08 18:22:00,
2013-11-08 11:52:00,42.0,16.0,29.93,SSW,211,4.0,-999.0,35,-99.99,,,-99.99,,2013-11-08 18:52:00,
2013-11-08 12:22:00,40.0,15.0,29.89,NW,311,7.0,-999.0,35,-99.99,,,-99.99,,2013-11-08 19:22:00,
2013-11-08 12:42:00,39.0,15.0,29.88,SW,221,7.0,-999.0,37,-99.99,,,-99.99,,2013-11-08 19:42:00,
2013-11-08 12:52:00,40.0,15.0,29.88,ENE,65,7.0,-999.0,36,-99.99,,,-99.99,,2013-11-08 19:52:00,
2013-11-08 13:22:00,41.0,16.0,29.91,NNE,27,6.0,-999.0,36,-99.99,,,-99.99,,2013-11-08 20:22:00,
2013-11-08 13:52:00,40.0,15.0,29.93,SSW,202,4.0,-999.0,36,-99.99,,,-99.99,,2013-11-08 20:52:00,
2013-11-08 14:22:00,41.0,15.0,29.95,NNW,338,4.0,-999.0,34,-99.99,,,-99.99,,2013-11-08 21:22:00,
2013-11-08 14:44:00,41.0,14.0,29.97,SSW,211,5.0,-999.0,33,-99.99,,,-99.99,,2013-11-08 21:44:00,
2013-11-08 14:54:00,41.0,13.0,29.97,WSW,237,4.0,-999.0,32,-99.99,,,-99.99,,2013-11-08 21:54:00,
2013-11-08 15:23:00,40.0,15.0,29.98,SW,229,4.0,-999.0,35,-99.99,,,-99.99,,2013-11-08 22:23:00,
2013-11-08 15:33:00,40.0,15.0,29.98,SW,229,4.0,-999.0,35,-99.99,,,-99.99,,2013-11-08 22:33:00,
2013-11-08 15:43:00,40.0,15.0,29.98,SW,229,4.0,-999.0,35,-99.99,,,-99.99,,2013-11-08 22:43:00,
2013-11-08 17:52:00,34.0,13.0,30.03,SW,228,1.0,-999.0,41,-99.99,,,-99.99,,2013-11-09 00:52:00,
2013-11-08 18:22:00,33.0,14.0,30.05,WSW,243,0.0,-999.0,45,-99.99,,,-99.99,,2013-11-09 01:22:00,
2013-11-08 18:42:00,31.0,13.0,30.05,WSW,243,0.0,-999.0,46,-99.99,,,-99.99,,2013-11-09 01:42:00,
2013-11-08 18:52:00,31.0,14.0,30.05,SSW,205,1.0,-999.0,48,-99.99,,,-99.99,,2013-11-09 01:52:00,
2013-11-08 19:22:00,31.0,13.0,30.06,WNW,301,0.0,-999.0,46,-99.99,,,-99.99,,2013-11-09 02:22:00,
2013-11-08 19:42:00,31.0,14.0,30.06,WNW,301,0.0,-999.0,48,-99.99,,,-99.99,,2013-11-09 02:42:00,
2013-11-08 19:52:00,30.0,12.0,30.06,ENE,78,0.0,-999.0,47,-99.99,,,-99.99,,2013-11-09 02:52:00,
2013-11-08 20:22:00,29.0,13.0,30.08,ENE,78,0.0,-999.0,50,-99.99,,,-99.99,,2013-11-09 03:22:00,
2013-11-08 20:54:00,27.0,12.0,30.09,East,98,0.0,-999.0,52,-99.99,,,-99.99,,2013-11-09 03:54:00,
2013-11-08 21:23:00,29.0,13.0,30.09,SSW,211,1.0,-999.0,50,-99.99,,,-99.99,,2013-11-09 04:23:00,
2013-11-08 21:42:00,30.0,14.0,30.10,SW,226,1.0,-999.0,50,-99.99,,,-99.99,,2013-11-09 04:42:00,
2013-11-08 21:53:00,30.0,13.0,30.11,SW,227,0.0,-999.0,48,-99.99,,,-99.99,,2013-11-09 04:53:00,
2013-11-08 22:23:00,29.0,13.0,30.12,SW,227,0.0,-999.0,51,-99.99,,,-99.99,,2013-11-09 05:23:00,
2013-11-08 22:43:00,29.0,13.0,30.13,SW,227,0.0,-999.0,50,-99.99,,,-99.99,,2013-11-09 05:43:00,
2013-11-08 22:53:00,28.0,13.0,30.14,SW,227,0.0,-999.0,52,-99.99,,,-99.99,,2013-11-09 05:53:00,
2013-11-08 23:22:00,28.0,14.0,30.14,SW,227,0.0,-999.0,55,-99.99,,,-99.99,,2013-11-09 06:22:00,
2013-11-08 23:43:00,28.0,14.0,30.15,SW,227,0.0,-999.0,54,-99.99,,,-99.99,,2013-11-09 06:43:00,
2013-11-08 23:54:00,27.0,13.0,30.15,SW,227,0.0,-999.0,56,-99.99,,,-99.99,,2013-11-09 06:54:00,